Flag for U.S.A. Weather past 2 weeks in Butte, Montana, U.S.A.

Now
30 °F

Passing clouds.


Feels Like: 26 °F
Forecast: 13 / 34 °F
Wind: 3 mph from North

Location: Mooney Airport

Current Time: Dec 19, 2014 at 7:27:27 PM

Latest Report: Dec 19, 2014 at 6:53 PM


Visibility: 10 mi

Pressure: 30.04 "Hg

Humidity: 89%

Dew point: 27 °F

Location of ButteLocation

Historic Weather in Butte — Graph

°F

Butte temperature yesterday

Maximum temperature yesterday: 26 °F (at 3:53 PM)
Minimum temperature yesterday: 5 °F (at 12:53 AM)
Average temperature yesterday: 17 °F

Past Weeks' High & Low Weather Summary

 TemperatureHumidityPressure
High52 °F (Dec 12, 12:53 PM)96% (Dec 5, 12:53 AM)30.41 "Hg (Dec 5, 12:53 AM)
Low1 °F (Dec 15, 10:53 PM)37% (Dec 7, 2:53 PM)29.66 "Hg (Dec 13, 1:53 AM)
Average29 °F77%30.12 "Hg
* Reported Dec 4 5:53 PM — Dec 19 5:53 PM, Butte, Weather by CustomWeather, © 2014

Note: Actual official high and low records may vary slightly from our data, if they occured in-between our weather recording intervals... More about our weather records

Advertising

Butte weather history for previous 24 hours

 ConditionsComfort  
Time TempWeatherWind HumidityBarometerVisibility
5:53 PM
Dec 19
33 °FOvercast.No wind82%30.03 "Hg10 mi
4:53 PM33 °FOvercast.5 mph85%30.03 "Hg10 mi
3:53 PM35 °FLight snow. Overcast.No wind72%30.03 "Hg3 mi
2:53 PM35 °FMore clouds than sun.6 mph70%30.01 "Hg10 mi
1:53 PM35 °FPartly sunny.3 mph70%30.01 "Hg10 mi
12:53 PM35 °FPartly sunny.6 mph67%30.02 "Hg10 mi
11:53 AM32 °FPassing clouds.6 mph69%30.04 "Hg10 mi
10:53 AM29 °FMostly cloudy.No wind79%30.06 "Hg10 mi
9:53 AM22 °FScattered clouds.No wind89%30.10 "Hg10 mi
8:53 AM21 °FPartly sunny.No wind88%30.11 "Hg10 mi
7:53 AM21 °FOvercast.No wind88%30.11 "Hg10 mi
6:53 AM20 °FOvercast.No wind85%30.13 "Hg10 mi
5:53 AM18 °FOvercast.No wind88%30.14 "Hg10 mi
4:53 AM16 °FPassing clouds.No wind92%30.14 "Hg10 mi
3:53 AM15 °FPartly cloudy.No wind83%30.14 "Hg10 mi
2:53 AM14 °FPassing clouds.No wind92%30.16 "Hg10 mi
1:53 AM14 °FClear.No wind87%30.17 "Hg10 mi
12:53 AM16 °FPassing clouds.No wind87%30.17 "Hg10 mi
11:53 PM
Dec 18
19 °FPassing clouds.5 mph85%30.16 "Hg10 mi
10:53 PM23 °FOvercast.3 mph85%30.15 "Hg10 mi
9:53 PM23 °FOvercast.No wind85%30.18 "Hg9 mi
8:53 PM24 °FMostly cloudy.No wind81%30.18 "Hg10 mi
7:53 PM24 °FMostly cloudy.No wind84%30.19 "Hg10 mi
Weather by CustomWeather, © 2014

See weather overviewHow to use our weather pages